Regional Weather Roundup
Issued by NWS

Home | Current Version | Previous Version | Text Only | Print | Product List | Glossary Off
Versions: 1 2 3 4 5 6 7 8 9 10 11 12 13 14 15 16 17 18 19 20 21 22 23 24 25 26 27 28 29 30 31 32 33 34 35 36 37 38 39 40 41 42 43 44 45 46 47 48 49 50

000
ASUS43 KLSX 301110
RWRMO

WEATHER SUMMARY FOR MISSOURI
NATIONAL WEATHER SERVICE SPRINGFIELD MO
600 AM CDT SUN AUG 30 2015

NOTE: "FAIR" INDICATES FEW OR NO CLOUDS BELOW 12,000 FEET WITH NO
       SIGNIFICANT WEATHER AND/OR OBSTRUCTIONS TO VISIBILITY.
       CURRENT SKY AND/OR WEATHER CONDITIONS ARE NOT AVAILABLE FOR
       CHILLICOTHE AND FARMINGTON.

MOZ001>031-035>038-043-044-053-054-301200-
...NORTHERN AND WESTERN MISSOURI...

CITY           SKY/WX    TMP DP  RH WIND       PRES   REMARKS
KANSAS CTY INT PTCLDY    66  60  81 E8        30.02S
KANSAS C DTWN  CLOUDY    70  67  90 NE6       30.01S
LEE`S SUMMIT   CLOUDY    69  67  93 E6        30.01F FOG
ST JOSEPH      CLOUDY    60  60 100 CALM      30.03R FOG
CHILLICOTHE      N/A     68  66  93 CALM      30.03S
KIRKSVILLE     FOG       68  66  93 NE5       30.04S VSB 1/2

$$
MOZ066>068-077>081-088>096-101>105-301200-
...SOUTHWEST MISSOURI...

CITY           SKY/WX    TMP DP  RH WIND       PRES   REMARKS
SPRINGFIELD    PTCLDY    68  65  90 SE8       29.99S
JOPLIN         FOG       67  67 100 VRB3      29.98F VSB 1/2

$$
MOZ032>034-039>042-045>050-055>058-069>072-301200-
...CENTRAL MISSOURI...

CITY           SKY/WX    TMP DP  RH WIND       PRES   REMARKS
COLUMBIA       MOCLDY    68  67  96 SE3       30.01S FOG
JEFFERSON CITY MOCLDY    66  65  96 CALM      30.01R FOG
ROLLA          PTCLDY    66  64  93 S7        30.01R
SEDALIA        CLOUDY    70  68  93 E3        30.01S FOG
WHITEMAN AFB   FOG       67  67  99 NE5       29.99S VSB 1/2
OSAGE BEACH    CLEAR     66  63  88 CALM      30.00R

$$
MOZ051-052-059>065-301200-
...EAST CENTRAL MISSOURI...

CITY           SKY/WX    TMP DP  RH WIND       PRES   REMARKS
ST LOUIS INTL  MOCLDY    73  65  75 CALM      30.02R
SPIRIT OF STL  CLEAR     68  66  93 CALM      30.00S
ST CHARLES     PTCLDY    67  67 100 CALM      30.01R

$$
MOZ072>076-082>087-097>100-106>115-301200-
...SOUTH CENTRAL AND SOUTHEAST MISSOURI...

CITY           SKY/WX    TMP DP  RH WIND       PRES   REMARKS
CAPE GIRARDEAU LGT RAIN  70  68  93 CALM      30.02S
FARMINGTON     CLEAR     66  64  94 CALM      30.04F
POPLAR BLUFF   PTCLDY    67  64  90 CALM      30.01R
WEST PLAINS    MOCLDY    69  65  86 CALM      30.04R

$$


USA.gov is the U.S. government's official web portal to all federal, state and local government web resources and services.